KC3QJO Weather Reports


time (UTC)temp
F
wind
direction
speed
knots
gust
knots
rain 1hr
in
rain 24hr
in
rain mn
in
humidity
%
barometer
mb
20260510130551 53 200 0.9 5.2 0.00 0.19 0.00 95 1012.2
20260510130054 53 242 1.7 5.2 0.00 0.19 0.00 95 1012.2
20260510125551 53 218 0.0 3.5 0.00 0.19 0.00 95 1012.2
20260510125051 53 215 0.9 5.2 0.00 0.19 0.00 95 1012.2
20260510124601 53 0 0.9 5.2 0.00 0.19 0.00 95 1012.2
20260510124050 53 0 0.9 3.5 0.00 0.19 0.00 95 1012.2
20260510123551 52 227 0.9 3.5 0.00 0.19 0.00 95 1012.2
20260510123102 52 181 0.9 5.2 0.00 0.19 0.00 95 1012.1
20260510122550 52 221 0.9 5.2 0.00 0.19 0.00 95 1012.0
20260510122051 52 0 1.7 4.3 0.00 0.19 0.00 95 1012.0
20260510121554 52 207 0.9 2.6 0.00 0.19 0.00 95 1012.0
20260510121054 52 285 0.0 2.6 0.00 0.19 0.00 95 1011.9
20260510120554 52 277 0.0 2.6 0.00 0.19 0.00 95 1011.8
20260510115554 51 0 0.0 1.7 0.00 0.19 0.00 95 1011.6
20260510115054 51 0 0.0 2.6 0.00 0.19 0.00 95 1011.6
20260510114553 51 347 0.0 2.6 0.00 0.19 0.00 95 1011.5
20260510114054 51 320 0.0 0.9 0.00 0.19 0.00 95 1011.4
20260510113553 51 0 0.0 1.7 0.00 0.19 0.00 95 1011.4
20260510113054 51 0 0.0 1.7 0.00 0.19 0.00 95 1011.3
20260510112554 51 254 0.0 0.9 0.00 0.19 0.00 95 1011.2
20260510112054 51 0 0.0 1.7 0.00 0.19 0.00 95 1011.3
20260510111553 51 0 0.0 1.7 0.00 0.19 0.00 95 1011.2
20260510111050 50 0 0.0 1.7 0.00 0.19 0.00 95 1011.2
20260510110554 50 0 0.0 0.9 0.00 0.19 0.00 95 1011.1
20260510110058 50 0 0.0 2.6 0.00 0.19 0.00 95 1011.0
20260510105557 50 0 0.9 3.5 0.00 0.19 0.00 95 1011.2
20260510105054 50 0 0.0 4.3 0.00 0.19 0.00 95 1010.9
20260510104554 50 166 1.7 4.3 0.00 0.19 0.00 95 1010.8
20260510104051 50 153 2.6 4.3 0.00 0.19 0.00 95 1010.8
20260510103555 50 188 1.7 4.3 0.00 0.19 0.00 95 1010.9
20260510103101 50 209 0.9 3.5 0.00 0.19 0.00 95 1010.9
20260510102555 50 0 0.9 2.6 0.00 0.19 0.00 94 1011.0
20260510102053 50 189 0.0 1.7 0.00 0.19 0.00 95 1010.8
20260510101603 50 0 0.0 0.9 0.00 0.19 0.00 95 1010.6
20260510101053 50 0 0.0 0.9 0.00 0.19 0.00 95 1010.4
20260510100554 50 0 0.0 1.7 0.00 0.19 0.00 95 1010.4
20260510100055 50 0 0.0 1.7 0.00 0.19 0.00 95 1010.4
20260510095554 50 94 0.0 1.7 0.00 0.19 0.00 95 1010.3
20260510095054 50 0 0.0 1.7 0.00 0.19 0.00 95 1010.3
20260510094553 50 94 0.9 2.6 0.00 0.19 0.00 94 1010.3
20260510094054 50 153 0.0 3.5 0.00 0.19 0.00 95 1010.2
20260510093554 50 153 1.7 7.0 0.00 0.19 0.00 94 1010.3
20260510093057 50 156 2.6 7.0 0.00 0.19 0.00 94 1010.3
20260510092555 50 134 0.9 2.6 0.00 0.19 0.00 94 1010.3
20260510092055 50 0 0.9 2.6 0.00 0.19 0.00 94 1010.3
20260510091557 50 134 0.9 2.6 0.00 0.19 0.00 94 1010.3
20260510091051 50 0 0.0 4.3 0.00 0.19 0.00 94 1010.3
20260510090555 50 134 0.0 6.1 0.00 0.19 0.00 94 1010.3
20260510090053 50 133 2.6 6.1 0.00 0.19 0.00 94 1010.2
20260510085551 50 125 1.7 6.1 0.00 0.19 0.00 94 1010.2
20260510085053 50 126 2.6 6.1 0.00 0.19 0.00 94 1010.2
20260510084555 50 144 2.6 6.1 0.00 0.19 0.00 94 1010.3
20260510084054 49 152 2.6 7.0 0.00 0.19 0.00 94 1010.3
20260510083553 49 116 1.7 7.0 0.00 0.19 0.00 94 1010.3
20260510083054 49 137 3.5 6.1 0.00 0.19 0.00 94 1010.3
20260510082553 49 131 3.5 6.1 0.00 0.19 0.00 94 1010.4
20260510082053 49 133 3.5 6.1 0.00 0.19 0.00 94 1010.5
20260510081600 49 133 2.6 6.1 0.00 0.19 0.00 94 1010.5
20260510081054 49 153 1.7 6.1 0.00 0.19 0.00 94 1010.5
20260510080554 49 121 0.9 2.6 0.00 0.19 0.00 94 1010.3
20260510080053 49 56 0.0 1.7 0.00 0.19 0.00 94 1010.4
20260510075554 49 0 0.0 0.9 0.00 0.19 0.00 94 1010.5
20260510075058 48 357 0.0 0.9 0.00 0.19 0.00 94 1010.7
20260510074553 48 357 0.0 1.7 0.00 0.19 0.00 94 1010.8
20260510074053 48 357 0.0 2.6 0.00 0.19 0.00 94 1010.7
20260510073554 48 358 0.9 2.6 0.00 0.19 0.00 94 1010.8
20260510073103 48 359 0.9 2.6 0.00 0.19 0.00 94 1010.8
20260510072554 48 316 0.9 2.6 0.00 0.19 0.00 94 1010.8
20260510072057 48 0 0.9 3.5 0.00 0.19 0.00 94 1010.8
20260510071557 49 318 0.9 7.8 0.00 0.19 0.00 93 1010.8
20260510071053 49 321 0.0 7.8 0.00 0.19 0.00 93 1010.9
20260510070550 49 266 3.5 7.8 0.00 0.19 0.00 94 1011.0
20260510070054 49 132 0.0 2.6 0.00 0.19 0.00 94 1010.3
20260510065554 49 132 0.0 3.5 0.00 0.19 0.00 94 1010.1
20260510065055 50 0 0.9 3.5 0.00 0.19 0.00 94 1010.0
20260510064554 50 133 1.7 3.5 0.00 0.19 0.00 94 1010.1
20260510064054 49 151 0.9 3.5 0.00 0.19 0.00 94 1010.2
20260510063555 49 127 0.0 2.6 0.00 0.19 0.00 94 1010.1
20260510063055 49 319 0.0 0.9 0.00 0.19 0.00 94 1010.2
20260510062554 49 319 0.0 0.9 0.00 0.19 0.00 94 1010.3
20260510062054 49 0 0.0 1.7 0.00 0.19 0.00 94 1010.3
20260510061602 49 0 0.0 1.7 0.00 0.19 0.00 94 1010.4
20260510061057 49 0 0.0 1.7 0.00 0.19 0.00 94 1010.3
20260510060554 49 0 0.0 1.7 0.00 0.19 0.00 94 1010.3
20260510060054 49 0 0.0 1.7 0.00 0.19 0.00 94 1010.4
20260510055554 49 319 0.9 1.7 0.00 0.19 0.00 94 1010.6
20260510055054 49 319 0.0 1.7 0.00 0.19 0.00 93 1010.5
20260510054601 49 319 0.9 2.6 0.00 0.19 0.00 93 1010.4
20260510054050 49 321 0.9 2.6 0.00 0.19 0.00 93 1010.5
20260510053551 49 316 0.9 2.6 0.00 0.19 0.00 93 1010.4
20260510053054 49 317 0.9 2.6 0.00 0.19 0.00 93 1010.3
20260510052550 49 318 0.9 2.6 0.00 0.19 0.00 93 1010.1
20260510052050 49 308 0.9 1.7 0.00 0.19 0.00 93 1010.1
20260510051551 49 201 0.0 1.7 0.00 0.19 0.00 93 1010.0
20260510051055 49 0 0.0 0.9 0.00 0.19 0.00 93 1010.1
20260510050550 50 0 0.0 0.9 0.00 0.19 0.00 93 1010.0
20260510050054 50 0 0.0 0.9 0.00 0.19 0.00 93 1010.1
20260510045550 50 0 0.0 0.9 0.00 0.19 0.00 93 1010.1
20260510045050 50 0 0.0 0.9 0.00 0.19 0.00 93 1010.1
20260510044553 50 0 0.0 0.9 0.00 0.19 0.00 93 1010.1
20260510044050 50 0 0.0 0.9 0.00 0.19 0.00 93 1010.1
20260510043550 50 0 0.0 0.9 0.00 0.19 0.00 93 1010.1
20260510043054 50 0 0.0 1.7 0.00 0.19 0.00 93 1010.1
20260510042553 50 0 0.0 1.7 0.00 0.19 0.00 93 1010.2
20260510042051 50 0 0.0 1.7 0.00 0.19 0.00 93 1010.3
20260510041629 50 0 0.0 1.7 0.00 0.19 0.00 93 1010.2
20260510041051 50 0 0.0 1.7 0.00 0.19 0.00 93 1010.2
20260510040553 50 0 0.0 1.7 0.00 0.19 0.00 93 1010.1
20260510040053 50 201 0.0 1.7 0.00 0.19 0.00 93 1010.3
20260510035550 50 201 0.0 1.7 0.00 0.19 0.19 93 1010.3
20260510035050 50 0 0.0 1.7 0.00 0.19 0.19 93 1010.2
20260510034558 50 201 0.9 1.7 0.00 0.19 0.19 93 1010.2
20260510034055 51 0 0.0 2.6 0.00 0.19 0.19 93 1010.1
20260510033550 51 0 0.9 2.6 0.00 0.19 0.19 93 1010.1
20260510033106 51 0 0.0 0.9 0.00 0.19 0.19 93 1010.1
20260510032550 51 0 0.0 1.7 0.00 0.19 0.19 93 1010.0
20260510032051 51 0 0.0 1.7 0.00 0.19 0.19 93 1009.9
20260510031555 51 201 0.0 1.7 0.00 0.19 0.19 93 1009.9
20260510031053 51 201 0.0 1.7 0.00 0.19 0.19 93 1010.0
20260510030552 51 0 0.0 2.6 0.00 0.19 0.19 93 1010.0
20260510030054 51 201 0.9 4.3 0.00 0.19 0.19 93 1010.1
20260510025551 51 201 1.7 4.3 0.00 0.19 0.19 93 1010.0
20260510025054 51 195 1.7 4.3 0.00 0.19 0.19 93 1010.1
20260510024608 51 170 1.7 5.2 0.00 0.19 0.19 93 1010.0
20260510024053 52 170 2.6 5.2 0.00 0.19 0.19 93 1010.0
20260510023550 52 171 2.6 7.0 0.00 0.19 0.19 93 1009.9
20260510023057 52 164 2.6 7.0 0.00 0.19 0.19 93 1009.9
20260510022551 52 164 3.5 6.1 0.00 0.19 0.19 93 1009.9
20260510022053 52 167 2.6 5.2 0.00 0.19 0.19 92 1010.0
20260510021555 52 158 2.6 4.3 0.00 0.19 0.19 92 1009.9
20260510021053 52 132 0.9 4.3 0.00 0.19 0.19 92 1009.8
20260510020554 52 175 0.9 4.3 0.00 0.19 0.19 92 1009.9
20260510020056 52 143 1.7 4.3 0.00 0.19 0.19 92 1009.8
20260510015555 52 163 1.7 3.5 0.00 0.19 0.19 92 1009.9
20260510015054 52 155 1.7 3.5 0.00 0.19 0.19 92 1009.9
20260510014614 52 148 2.6 4.3 0.00 0.19 0.19 92 1009.9
20260510014054 52 148 1.7 4.3 0.00 0.19 0.19 92 1009.8
20260510013554 52 153 2.6 5.2 0.00 0.19 0.19 92 1009.8
20260510013103 52 156 2.6 5.2 0.00 0.19 0.19 91 1009.9
20260510012555 52 151 3.5 4.3 0.00 0.19 0.19 91 1009.7
20260510012054 52 162 2.6 5.2 0.00 0.19 0.19 91 1009.7
20260510011556 53 151 2.6 5.2 0.00 0.19 0.19 91 1009.6
20260510011055 53 146 2.6 5.2 0.00 0.19 0.19 90 1009.6
20260510010553 53 143 2.6 3.5 0.00 0.19 0.19 90 1009.6
20260510010053 53 151 1.7 3.5 0.00 0.19 0.19 90 1009.5
20260510005555 53 137 1.7 3.5 0.00 0.19 0.19 89 1009.4
20260510005054 53 114 1.7 3.5 0.00 0.19 0.19 89 1009.3
20260510004600 53 132 0.9 2.6 0.00 0.19 0.19 89 1009.4
20260510004054 53 132 1.7 3.5 0.00 0.19 0.19 89 1009.4
20260510003554 54 132 1.7 5.2 0.00 0.19 0.19 88 1009.3
20260510003053 54 133 1.7 5.2 0.00 0.19 0.19 88 1009.2
20260510002558 54 135 1.7 3.5 0.00 0.19 0.19 87 1009.1
20260510002054 54 118 0.9 2.6 0.00 0.19 0.19 86 1009.1
20260510001554 54 165 0.9 2.6 0.00 0.19 0.19 86 1009.1
20260510001054 54 165 0.0 1.7 0.00 0.19 0.19 86 1009.0
20260510000556 54 0 0.9 2.6 0.00 0.19 0.19 86 1008.9
20260510000054 54 165 0.9 3.5 0.00 0.19 0.19 86 1008.9
20260509235557 55 165 1.7 3.5 0.00 0.19 0.19 86 1008.9
20260509235057 55 165 1.7 3.5 0.00 0.19 0.19 86 1008.9
20260509234554 55 165 0.9 3.5 0.00 0.19 0.19 86 1008.8
20260509234054 55 165 1.7 3.5 0.00 0.19 0.19 85 1008.9
20260509233553 55 165 0.9 2.6 0.00 0.19 0.19 85 1008.9
20260509233055 55 165 0.9 4.3 0.00 0.19 0.19 85 1008.8
20260509232553 55 165 1.7 5.2 0.00 0.19 0.19 85 1008.8
20260509232055 55 170 2.6 5.2 0.00 0.19 0.19 85 1008.6
20260509231606 55 166 1.7 4.3 0.00 0.19 0.19 85 1008.7
20260509231053 55 195 1.7 4.3 0.00 0.19 0.19 85 1008.7
20260509230557 55 224 0.0 6.1 0.00 0.19 0.19 85 1008.6
20260509230054 55 193 2.6 6.1 0.00 0.19 0.19 85 1008.7
20260509225555 55 179 1.7 6.1 0.00 0.19 0.19 85 1008.6
20260509225054 55 212 1.7 6.1 0.00 0.19 0.19 85 1008.7
20260509224555 55 171 3.5 6.1 0.00 0.19 0.19 85 1008.6
20260509224051 55 156 0.9 4.3 0.00 0.19 0.19 86 1008.6
20260509223554 55 215 1.7 6.1 0.00 0.19 0.19 85 1008.7
20260509223056 55 166 2.6 7.0 0.00 0.19 0.19 85 1008.7
20260509222557 55 210 3.5 7.0 0.00 0.19 0.19 85 1008.7
20260509222054 55 173 3.5 6.1 0.00 0.19 0.19 85 1008.7
20260509221557 55 171 1.7 6.1 0.00 0.19 0.19 86 1008.8
20260509221055 55 218 3.5 6.1 0.00 0.19 0.19 85 1008.9
20260509220555 55 207 3.5 6.1 0.00 0.19 0.19 85 1008.8
20260509220058 55 216 2.6 5.2 0.00 0.19 0.19 85 1008.8
20260509215556 55 194 1.7 5.2 0.00 0.19 0.19 85 1008.8
20260509215054 55 205 0.9 6.1 0.00 0.19 0.19 85 1008.9
20260509214553 55 0 0.9 7.0 0.00 0.19 0.19 85 1008.8
20260509214053 55 215 0.9 7.0 0.00 0.19 0.19 86 1008.7
20260509213554 55 168 2.6 7.8 0.00 0.19 0.19 86 1008.6
20260509213053 55 160 2.6 7.8 0.00 0.19 0.19 87 1008.7
20260509212554 55 170 3.5 7.0 0.00 0.19 0.19 86 1008.8
20260509212055 55 186 2.6 6.1 0.00 0.19 0.19 87 1008.9
20260509211600 54 172 2.6 6.1 0.00 0.19 0.19 87 1008.8
20260509211054 54 218 0.9 5.2 0.00 0.19 0.19 88 1009.0
20260509210555 55 204 1.7 4.3 0.00 0.19 0.19 88 1009.2
20260509210106 55 0 0.0 1.7 0.00 0.19 0.19 89 1009.2
20260509205553 55 0 0.0 2.6 0.00 0.19 0.19 89 1009.1
20260509205054 54 0 0.9 2.6 0.00 0.19 0.19 89 1009.2
20260509204554 55 183 0.9 2.6 0.00 0.19 0.19 89 1009.4
20260509204054 55 237 0.0 3.5 0.00 0.19 0.19 89 1009.4
20260509203556 55 248 0.9 3.5 0.01 0.19 0.19 90 1009.3
20260509203053 55 274 0.0 2.6 0.01 0.19 0.19 90 1009.3
20260509202553 54 292 0.0 2.6 0.01 0.19 0.19 90 1009.3
20260509202052 54 214 0.0 2.6 0.01 0.19 0.19 90 1009.3
20260509201553 54 290 0.0 3.5 0.01 0.19 0.19 90 1009.2
20260509201052 54 0 0.0 3.5 0.02 0.19 0.19 90 1009.3
20260509200553 53 0 1.7 3.5 0.03 0.19 0.19 90 1009.2
20260509200055 53 163 1.7 3.5 0.03 0.19 0.19 90 1009.2
20260509195554 53 168 0.0 5.2 0.03 0.19 0.19 91 1009.3
20260509195053 53 0 1.7 6.1 0.04 0.19 0.19 91 1009.5
20260509194555 53 220 2.6 6.1 0.05 0.19 0.19 91 1009.5
20260509194052 53 158 3.5 6.1 0.05 0.19 0.19 90 1009.6
20260509193552 53 193 0.9 5.2 0.05 0.18 0.18 90 1009.8
20260509193054 53 170 2.6 5.2 0.05 0.18 0.18 90 1009.9
20260509192555 53 157 1.7 3.5 0.05 0.18 0.18 90 1009.8
20260509192052 53 174 0.9 2.6 0.05 0.18 0.18 89 1010.1
20260509191557 53 0 0.0 3.5 0.06 0.18 0.18 89 1010.3
20260509191053 53 263 0.9 4.3 0.05 0.17 0.17 89 1010.3
20260509190551 53 195 0.9 4.3 0.04 0.16 0.16 89 1010.6
20260509185552 53 0 0.9 7.8 0.04 0.16 0.16 89 1010.3
20260509185052 53 212 2.6 7.8 0.04 0.15 0.15 88 1010.5
20260509184601 53 185 1.7 5.2 0.03 0.14 0.14 88 1010.6
20260509184051 54 206 0.9 2.6 0.04 0.14 0.14 88 1010.5
20260509183552 54 0 0.0 2.6 0.03 0.13 0.13 88 1010.4
20260509183059 54 0 0.0 2.6 0.04 0.13 0.13 88 1010.6
20260509182552 54 236 0.9 2.6 0.05 0.13 0.13 88 1010.5
20260509182051 54 256 0.0 1.7 0.07 0.13 0.13 88 1010.6
20260509181556 54 0 0.0 3.5 0.07 0.12 0.12 88 1010.4
20260509181051 54 277 0.0 3.5 0.08 0.12 0.12 88 1010.5
20260509180553 54 0 0.0 2.6 0.09 0.12 0.12 88 1010.5
20260509180058 54 0 0.0 2.6 0.10 0.12 0.12 88 1010.4
20260509175552 54 0 0.0 2.6 0.10 0.12 0.12 88 1010.4
20260509175050 54 0 0.0 3.5 0.10 0.11 0.11 88 1010.4
20260509174556 54 258 0.0 3.5 0.10 0.11 0.11 87 1010.5
20260509174051 54 251 0.0 3.5 0.09 0.10 0.10 87 1010.5
20260509173551 54 281 0.9 5.2 0.10 0.10 0.10 87 1010.4
20260509173119 54 260 1.7 5.2 0.09 0.09 0.09 86 1010.3
20260509172552 55 257 0.9 4.3 0.08 0.08 0.08 87 1010.2
20260509172051 55 222 0.0 5.2 0.06 0.06 0.06 86 1010.4
20260509171602 55 0 1.7 5.2 0.05 0.05 0.05 86 1010.6
20260509171051 55 0 0.9 4.3 0.04 0.04 0.04 86 1010.6
20260509170553 55 217 1.7 5.2 0.03 0.03 0.03 86 1010.7
20260509170100 56 279 0.9 5.2 0.02 0.02 0.02 86 1010.8
20260509165552 56 214 0.9 6.1 0.02 0.02 0.02 85 1010.6
20260509165053 56 246 0.9 6.1 0.01 0.01 0.01 84 1010.6
20260509164601 56 196 1.7 6.1 0.01 0.01 0.01 84 1010.7
20260509164053 56 210 1.7 9.6 0.01 0.01 0.01 83 1010.6
20260509163552 56 202 4.3 10.4 0.00 0.00 0.00 82 1010.6
20260509163058 56 187 4.3 10.4 0.00 0.00 0.00 82 1010.7
20260509162552 56 225 4.3 8.7 0.00 0.00 0.00 81 1010.6
20260509162055 56 204 4.3 8.7 0.00 0.00 0.00 81 1010.6
20260509161555 56 195 3.5 9.6 0.00 0.00 0.00 81 1010.6
20260509161051 56 191 4.3 9.6 0.00 0.00 0.00 81 1010.7
20260509160552 56 202 2.6 7.0 0.00 0.00 0.00 81 1010.8
20260509160054 56 171 3.5 7.0 0.00 0.00 0.00 81 1010.9
20260509155551 56 208 0.9 7.8 0.00 0.00 0.00 82 1010.9
20260509155052 55 210 3.5 7.8 0.00 0.00 0.00 82 1010.9
20260509154555 55 208 2.6 7.0 0.00 0.00 0.00 82 1010.9
20260509154053 55 218 3.5 7.0 0.00 0.00 0.00 82 1011.0
20260509153556 55 207 2.6 7.0 0.00 0.00 0.00 82 1011.0
20260509153056 55 202 3.5 9.6 0.00 0.00 0.00 82 1011.1
20260509152552 55 187 3.5 9.6 0.00 0.00 0.00 82 1011.0
20260509152052 55 191 3.5 8.7 0.00 0.00 0.00 82 1011.0
20260509151616 55 185 3.5 7.8 0.00 0.00 0.00 82 1010.9
20260509151052 55 189 5.2 7.8 0.00 0.00 0.00 82 1010.8
20260509150552 54 167 3.5 8.7 0.00 0.00 0.00 81 1010.6
20260509150055 54 156 4.3 8.7 0.00 0.00 0.00 81 1010.7
20260509145553 54 168 6.1 8.7 0.00 0.00 0.00 81 1010.9
20260509145052 55 179 4.3 7.8 0.00 0.00 0.00 80 1011.1
20260509144555 54 182 5.2 7.8 0.00 0.00 0.00 81 1011.0
20260509144054 55 168 2.6 7.0 0.00 0.00 0.00 81 1011.0
20260509143553 54 203 3.5 7.0 0.00 0.00 0.00 82 1011.0
20260509143103 54 187 3.5 7.0 0.00 0.00 0.00 82 1011.0
20260509142553 54 171 1.7 7.0 0.00 0.00 0.00 82 1011.1
20260509142052 54 175 2.6 7.0 0.00 0.00 0.00 81 1011.1
20260509141558 54 191 3.5 7.0 0.00 0.00 0.00 81 1011.0
20260509141052 54 168 2.6 6.1 0.00 0.00 0.00 82 1010.9
20260509140551 54 209 1.7 4.3 0.00 0.00 0.00 80 1010.9
20260509140056 54 173 1.7 6.1 0.00 0.00 0.00 81 1010.8
20260509135554 54 200 2.6 6.1 0.00 0.00 0.00 80 1010.7
20260509135056 54 157 1.7 4.3 0.00 0.00 0.00 80 1010.8
20260509134555 54 208 1.7 7.0 0.00 0.00 0.00 80 1010.6
20260509134057 54 221 2.6 7.0 0.00 0.00 0.00 80 1010.8
20260509133554 54 135 2.6 7.0 0.00 0.00 0.00 80 1010.6
20260509133104 54 147 3.5 7.0 0.00 0.00 0.00 80 1010.6
20260509132551 53 154 4.3 7.0 0.00 0.00 0.00 79 1010.6
20260509132051 53 118 3.5 6.1 0.00 0.00 0.00 79 1010.6
20260509131603 53 140 2.6 6.1 0.00 0.00 0.00 80 1010.8
20260509131054 53 137 1.7 4.3 0.00 0.00 0.00 79 1010.9